EW9138 Weather Reports


Display with metric or nautical units.
time (UTC)temp
F
wind
direction
speed
MPH
gust
MPH
rain 1hr
in
rain 24hr
in
rain mn
in
humidity
%
barometer
mb
20260905132815 87 336 0.0 0.0 0.05 0.05 0.05 60 1017.9
20260905132314 88 335 0.0 0.0 0.05 0.05 0.05 55 1017.9
20260905131814 88 336 0.0 0.0 0.05 0.05 0.05 53 1017.9
20260905130315 90 336 0.0 0.0 0.05 0.05 0.05 51 1018.0
20260905124315 87 336 0.0 0.0 0.05 0.05 0.05 58 1018.2
20260905123815 86 336 1.0 6.0 0.05 0.05 0.05 58 1018.2
20260905123315 86 336 2.0 6.0 0.05 0.05 0.05 56 1018.2
20260905122815 87 343 2.0 5.0 0.00 0.00 0.00 51 1018.4
20260905122315 86 13 2.0 5.0 0.00 0.00 0.00 53 1018.4
20260905121814 86 125 2.0 6.0 0.00 0.00 0.00 53 1018.4
20260905120815 84 150 2.0 6.0 0.00 0.00 0.00 55 1018.5
20260905120314 84 263 2.0 5.0 0.00 0.00 0.00 54 1018.5
20260905115815 84 247 3.0 5.0 0.00 0.00 0.00 54 1018.7
20260905115315 84 267 3.0 5.0 0.00 0.00 0.00 55 1018.7
20260905114815 83 332 3.0 8.0 0.00 0.00 0.00 55 1018.7
20260905114315 83 283 2.0 8.0 0.00 0.00 0.00 54 1018.7
20260905113815 83 239 2.0 7.0 0.00 0.00 0.00 55 1018.7
20260905113315 82 217 2.0 5.0 0.00 0.00 0.00 56 1018.7
20260905112815 82 357 2.0 5.0 0.00 0.00 0.00 55 1018.8
20260905112315 82 203 2.0 5.0 0.00 0.00 0.00 56 1018.8
20260905111814 81 269 2.0 3.0 0.00 0.00 0.00 57 1018.8
20260905111314 81 245 2.0 3.0 0.00 0.00 0.00 57 1018.8
20260905110815 81 207 2.0 3.0 0.00 0.00 0.00 56 1018.8
20260905110315 81 207 2.0 5.0 0.00 0.00 0.00 57 1018.8
20260905105315 81 193 2.0 3.0 0.00 0.00 0.00 58 1019.1
20260905104315 80 194 2.0 3.0 0.00 0.00 0.00 57 1019.1
20260905103815 80 193 2.0 3.0 0.00 0.00 0.00 56 1019.1
20260905103315 80 193 2.0 3.0 0.00 0.00 0.00 57 1019.1
20260905102814 79 206 2.0 3.0 0.00 0.00 0.00 61 1019.1
20260905102314 79 206 2.0 3.0 0.00 0.00 0.00 61 1019.1
20260905101815 79 208 2.0 3.0 0.00 0.00 0.00 62 1019.1
20260905101315 79 208 2.0 3.0 0.00 0.00 0.00 62 1019.3
20260905100815 78 207 2.0 5.0 0.00 0.00 0.00 64 1019.3
20260905100316 77 200 2.0 5.0 0.00 0.00 0.00 66 1019.3
20260905095814 77 202 2.0 5.0 0.00 0.00 0.00 66 1019.3
20260905095314 76 205 2.0 3.0 0.00 0.00 0.00 67 1019.3
20260905094815 76 205 2.0 3.0 0.00 0.00 0.00 69 1019.3
20260905093816 75 256 2.0 5.0 0.00 0.00 0.00 70 1019.5
20260905093315 75 249 2.0 5.0 0.00 0.00 0.00 70 1019.5
20260905092815 75 281 2.0 5.0 0.00 0.00 0.00 72 1019.5
20260905091815 74 269 2.0 2.0 0.00 0.00 0.00 74 1019.5
20260905091315 74 269 2.0 5.0 0.00 0.00 0.00 73 1019.5
20260905090815 74 269 2.0 5.0 0.00 0.00 0.00 73 1019.5
20260905090315 73 301 2.0 5.0 0.00 0.00 0.00 73 1019.5
20260905085815 73 286 2.0 5.0 0.00 0.00 0.00 74 1019.5
20260905085315 73 253 2.0 5.0 0.00 0.00 0.00 74 1019.5
20260905083815 73 194 2.0 5.0 0.00 0.00 0.00 74 1019.1
20260905083316 72 344 2.0 5.0 0.00 0.00 0.00 75 1019.1
20260905082815 72 3 2.0 5.0 0.00 0.00 0.00 75 1019.3
20260905081314 71 182 2.0 5.0 0.00 0.00 0.00 78 1019.2
20260905080815 71 182 2.0 5.0 0.00 0.00 0.00 78 1019.2
20260905080314 70 189 2.0 3.0 0.00 0.00 0.00 79 1019.2
20260905075815 70 167 2.0 3.0 0.00 0.00 0.00 80 1019.1
20260905075315 69 111 2.0 5.0 0.00 0.00 0.00 79 1019.1
20260905074815 69 310 1.0 5.0 0.00 0.00 0.00 80 1019.1
20260905074315 69 328 0.0 3.0 0.00 0.00 0.00 82 1018.9
20260905073815 68 349 1.0 2.0 0.00 0.00 0.00 84 1018.9
20260905073315 68 349 1.0 2.0 0.00 0.00 0.00 85 1018.9
20260905072816 67 349 2.0 2.0 0.00 0.00 0.00 85 1018.9
20260905072315 67 349 2.0 3.0 0.00 0.00 0.00 85 1018.9
20260905071815 67 334 2.0 5.0 0.00 0.00 0.00 85 1018.9
20260905070815 66 212 2.0 3.0 0.00 0.00 0.00 87 1019.0
20260905070315 66 212 1.0 3.0 0.00 0.00 0.00 88 1019.0
20260905065815 66 215 2.0 3.0 0.00 0.00 0.00 88 1018.9
20260905065315 66 344 2.0 3.0 0.00 0.00 0.00 87 1018.9
20260905064815 66 339 2.0 5.0 0.00 0.00 0.00 87 1018.9
20260905064315 65 302 2.0 5.0 0.00 0.00 0.00 88 1019.1
20260905063815 65 3 1.0 6.0 0.00 0.00 0.00 88 1019.1
20260905063315 65 353 0.0 6.0 0.00 0.00 0.00 88 1019.1
20260905062816 65 15 1.0 6.0 0.00 0.00 0.00 88 1019.0
20260905062315 65 1 1.0 1.0 0.00 0.00 0.00 88 1019.0
20260905061315 65 1 1.0 3.0 0.00 0.00 0.00 89 1019.4